DW4338 Bergen NO current weather conditions

sailwx.info

Wind from 109 at 2 knots gusting 10

Air temperature 9.4° C
Dewpoint 7.7° C

Last reported at 2014-Oct-21 18:36 UTC.
Time now 2014-Oct-21 19:52 UTC

Location: N 60°31' E 004°54'.
View on Google Maps.

See reports from other nearby stations

  
Tides and Currents Weather Stations Pressure Air Temp Water Temp Dewpoint Dewpoint Depression Visibility Wind Speed Wind Dir Waves Ship Positions
date/time (UTC)wind fromknots sea level pressurealtimeterstation pressurevisibilityair tempwater tempwave heightnotes
2014-Oct-21 18:36 109 2 gusting 10 9.4
2014-Oct-21 18:20 109 1 gusting 8 9.4
2014-Oct-21 18:06 109 9.4
2014-Oct-21 17:51 109 10.0
2014-Oct-21 17:35 109 5 gusting 14 10.0
2014-Oct-21 17:20 110 4 gusting 13 10.0
2014-Oct-21 17:06 110 3 gusting 13 10.0
2014-Oct-21 16:49 109 6 gusting 20 10.0
2014-Oct-21 16:34 111 8 gusting 18 10.0
2014-Oct-21 16:19 112 11 gusting 22 10.0
2014-Oct-21 16:04 118 15 gusting 29 10.6
2014-Oct-21 15:49 111 12 gusting 25 10.6
2014-Oct-21 15:34 111 16 gusting 30 10.0
2014-Oct-21 15:19 115 15 gusting 27 10.0
2014-Oct-21 15:04 121 16 gusting 25 10.6
2014-Oct-21 14:48 117 10 gusting 22 10.6
2014-Oct-21 14:33 125 12 gusting 30 11.1
2014-Oct-21 14:18 122 21 gusting 39 11.7
2014-Oct-21 14:03 119 26 gusting 39 11.1
2014-Oct-21 13:48 109 24 gusting 41 11.1
2014-Oct-21 13:32 116 21 gusting 33 11.7
2014-Oct-21 13:17 134 24 gusting 43 11.7
2014-Oct-21 13:02 107 24 gusting 39 11.7
2014-Oct-21 12:47 105 29 gusting 43 12.2
2014-Oct-21 12:32 115 26 gusting 50 12.2
2014-Oct-21 12:17 135 20 gusting 33 12.2
2014-Oct-21 12:01 117 25 gusting 43 12.2
2014-Oct-21 11:46 123 27 gusting 39 11.7
2014-Oct-21 11:30 127 27 gusting 41 11.7
2014-Oct-21 11:16 111 26 gusting 49 11.7
2014-Oct-21 11:01 138 25 gusting 50 11.7
2014-Oct-21 10:45 130 26 gusting 41 11.7
2014-Oct-21 10:30 107 33 gusting 52 11.7
2014-Oct-21 10:15 133 37 gusting 58 11.1
2014-Oct-21 10:00 166 39 gusting 65 11.1
2014-Oct-21 09:47 144 30 gusting 53 11.1
2014-Oct-21 09:29 105 37 gusting 65 11.1
2014-Oct-21 09:14 156 41 gusting 66 10.6
2014-Oct-21 08:59 104 39 gusting 63 10.6
2014-Oct-21 08:46 117 33 gusting 70 10.0
2014-Oct-21 08:29 084 30 gusting 55 10.0
2014-Oct-21 08:13 106 24 gusting 55 9.4
2014-Oct-21 07:58 099 26 gusting 60 9.4
2014-Oct-21 07:44 108 33 gusting 60 9.4
2014-Oct-21 07:28 103 27 gusting 57 8.9
2014-Oct-21 07:13 123 32 gusting 55 8.9
2014-Oct-21 06:58 121 37 gusting 60 8.9
2014-Oct-21 06:42 102 33 gusting 57 9.4
2014-Oct-21 06:27 137 33 gusting 55 9.4
2014-Oct-21 06:12 133 30 gusting 72 9.4
2014-Oct-21 05:57 116 33 gusting 56 9.4
2014-Oct-21 05:42 151 36 gusting 55 9.4
2014-Oct-21 05:27 109 21 gusting 59 9.4
2014-Oct-21 05:11 132 38 gusting 62 9.4
2014-Oct-21 04:56 117 37 gusting 62 8.9
2014-Oct-21 04:41 142 33 gusting 68 8.9
2014-Oct-21 04:26 137 32 gusting 54 9.4
2014-Oct-21 04:10 140 29 gusting 55 8.9
2014-Oct-21 03:56 099 22 gusting 43 8.9
2014-Oct-21 03:40 142 27 gusting 49 8.9
2014-Oct-21 03:25 148 26 gusting 50 8.9
2014-Oct-21 03:11 114 24 gusting 45 8.9
2014-Oct-21 02:54 139 27 gusting 45 8.9
2014-Oct-21 02:39 146 24 gusting 46 8.9
2014-Oct-21 02:25 116 26 gusting 49 8.9
2014-Oct-21 02:09 117 25 gusting 42 8.9
2014-Oct-21 01:54 121 28 gusting 46 8.9
2014-Oct-21 01:38 132 26 gusting 42 8.3
2014-Oct-21 01:23 119 20 gusting 33 8.3
2014-Oct-21 01:09 131 27 gusting 46 8.3
2014-Oct-21 00:52 149 20 gusting 42 8.3
2014-Oct-21 00:38 128 24 gusting 44 8.3
2014-Oct-21 00:22 119 23 gusting 42 8.3
2014-Oct-21 00:07 104 22 gusting 37 8.3
2014-Oct-20 23:52 128 22 gusting 39 8.3
2014-Oct-20 23:37 150 22 gusting 39 8.3
2014-Oct-20 23:24 126 19 gusting 45 8.3
2014-Oct-20 23:08 140 17 gusting 41 8.3
2014-Oct-20 22:52 130 20 gusting 34 8.3
2014-Oct-20 22:36 119 19 gusting 32 8.3
2014-Oct-20 22:21 156 17 gusting 37 8.9
2014-Oct-20 22:06 157 21 gusting 34 8.3
2014-Oct-20 21:51 122 11 gusting 33 8.3
2014-Oct-20 21:36 130 16 gusting 29 8.3
2014-Oct-20 21:21 134 16 gusting 30 8.3
2014-Oct-20 21:06 109 13 gusting 21 8.3
2014-Oct-20 20:50 116 13 gusting 20 8.3
2014-Oct-20 20:35 123 13 gusting 20 8.3
2014-Oct-20 20:20 119 7 gusting 17 8.3
2014-Oct-20 20:05 170 3 gusting 13 8.9
2014-Oct-20 19:49 144 8.9
2014-Oct-20 19:34 205 2 gusting 15 8.9
2014-Oct-20 19:19 229 8.9
2014-Oct-20 19:04 244 17 gusting 27 9.4
2014-Oct-20 18:50 267 0 gusting 13 9.4
2014-Oct-20 18:35 257 9 gusting 19 9.4
2014-Oct-20 18:19 289 6 gusting 19 9.4
2014-Oct-20 18:03 276 8 gusting 15 9.4
2014-Oct-20 17:48 260 8 gusting 18 9.4
2014-Oct-20 17:34 275 6 gusting 20 9.4
2014-Oct-20 17:19 275 2 gusting 16 8.9
2014-Oct-20 17:03 277 6 gusting 16 8.9
2014-Oct-20 16:47 286 7 gusting 26 9.4
2014-Oct-20 16:32 309 13 gusting 26 9.4
2014-Oct-20 16:18 306 12 gusting 21 9.4
2014-Oct-20 16:02 292 16 gusting 31 10.0
2014-Oct-20 15:47 286 16 gusting 28 10.0
2014-Oct-20 15:32 307 22 gusting 35 10.0
2014-Oct-20 15:16 298 26 gusting 35 10.0
2014-Oct-20 15:01 283 22 gusting 38 10.0
2014-Oct-20 14:45 304 24 gusting 37 10.0
2014-Oct-20 14:31 300 22 gusting 42 10.0
2014-Oct-20 14:15 281 26 gusting 45 10.0
2014-Oct-20 14:00 298 33 gusting 50 10.0
2014-Oct-20 13:45 334 31 gusting 53 10.0
2014-Oct-20 13:30 283 31 gusting 53 10.0
2014-Oct-20 13:15 300 34 gusting 52 10.0
2014-Oct-20 13:00 296 33 gusting 48 10.0
2014-Oct-20 12:46 311 24 gusting 39 9.4
2014-Oct-20 12:30 338 38 gusting 55 9.4
2014-Oct-20 12:14 331 43 gusting 58 9.4
2014-Oct-20 11:59 292 36 gusting 59 10.0
2014-Oct-20 11:44 302 33 gusting 53 10.0
2014-Oct-20 11:29 295 31 gusting 48 10.6
2014-Oct-20 11:14 307 34 gusting 50 10.6
2014-Oct-20 10:58 297 33 gusting 53 10.6
2014-Oct-20 10:43 334 33 gusting 46 10.6
2014-Oct-20 10:28 330 26 gusting 39 10.6
2014-Oct-20 10:13 288 17 gusting 32 10.6
2014-Oct-20 09:58 322 14 gusting 25 10.6
2014-Oct-20 09:42 319 8 gusting 24 10.6
2014-Oct-20 09:27 298 19 gusting 36 10.6
2014-Oct-20 09:12 261 28 gusting 43 11.1
2014-Oct-20 08:57 295 21 gusting 37 11.1
2014-Oct-20 08:43 304 26 gusting 42 11.1
2014-Oct-20 08:27 295 27 gusting 43 11.1
2014-Oct-20 08:11 286 27 gusting 37 11.1
2014-Oct-20 07:56 307 22 gusting 34 11.1
2014-Oct-20 07:41 302 26 gusting 39 10.6
2014-Oct-20 07:26 287 20 gusting 42 10.6
2014-Oct-20 07:11 280 22 gusting 34 10.6
2014-Oct-20 06:56 306 24 gusting 40 10.6
2014-Oct-20 06:41 293 22 gusting 39 10.6
2014-Oct-20 06:25 302 24 gusting 37 10.6
2014-Oct-20 06:11 305 32 gusting 44 10.6
2014-Oct-20 05:55 296 25 gusting 39 10.6
2014-Oct-20 05:40 301 23 gusting 36 10.6
2014-Oct-20 05:25 333 22 gusting 34 10.6
2014-Oct-20 05:09 288 19 gusting 32 10.6
2014-Oct-20 04:54 296 23 gusting 36 10.6
2014-Oct-20 04:39 305 21 gusting 33 10.6
2014-Oct-20 04:24 260 11 gusting 24 10.6
2014-Oct-20 04:10 284 21 gusting 32 10.6
2014-Oct-20 03:54 273 18 gusting 35 10.6
2014-Oct-20 03:38 298 18 gusting 33 11.1
2014-Oct-20 03:23 266 18 gusting 33 11.1
2014-Oct-20 03:08 263 13 gusting 29 11.1
2014-Oct-20 02:53 284 16 gusting 30 11.1
2014-Oct-20 02:37 262 18 gusting 37 11.1
2014-Oct-20 02:22 301 21 gusting 44 11.1
2014-Oct-20 02:07 290 19 gusting 39 11.1
2014-Oct-20 01:52 277 20 gusting 40 11.1
2014-Oct-20 01:37 288 20 gusting 41 11.1
2014-Oct-20 01:22 295 20 gusting 46 11.1
2014-Oct-20 01:06 277 22 gusting 40 11.1
2014-Oct-20 00:51 271 22 gusting 46 11.1
2014-Oct-20 00:36 249 19 gusting 38 11.1
2014-Oct-20 00:21 226 19 gusting 42 11.1
2014-Oct-20 00:06 292 20 gusting 45 11.1
2014-Oct-19 23:51 285 19 gusting 41 11.1
2014-Oct-19 23:36 289 19 gusting 45 11.1
2014-Oct-19 23:20 264 23 gusting 49 11.1
2014-Oct-19 23:05 281 25 gusting 52 11.1
2014-Oct-19 22:50 255 23 gusting 46 11.1
2014-Oct-19 22:35 271 21 gusting 37 11.1
2014-Oct-19 22:20 270 21 gusting 40 11.1
2014-Oct-19 22:04 252 18 gusting 48 11.1
2014-Oct-19 21:49 248 22 gusting 43 11.1
2014-Oct-19 21:34 245 19 gusting 37 11.7
2014-Oct-19 21:19 259 19 gusting 36 11.7
2014-Oct-19 21:04 265 21 gusting 38 11.7
2014-Oct-19 20:49 280 18 gusting 36 11.7
2014-Oct-19 20:33 262 19 gusting 33 11.1
2014-Oct-19 20:18 257 20 gusting 38 11.1
2014-Oct-19 20:03 252 22 gusting 38 11.7
2014-Oct-19 19:48 271 21 gusting 40 11.7
2014-Oct-19 19:33 209 19 gusting 41 11.7
2014-Oct-19 19:18 269 24 gusting 50 11.7
2014-Oct-19 19:02 263 21 gusting 38 11.7